Location: Peebles
(55.6412°N, 3.1714°W)
Time: 15:57:17
(UTC+01:00)

LEMUR 2 NALLYWACKER - Visible Passes

Search period start: 03 July 2022 00:00
Search period end: 13 July 2022 00:00
Orbit: 506 x 519 km, 97.4° (Epoch: 02 July)

Date Brightness Start Highest point End Pass type
(mag) Time Alt. Az. Time Alt. Az. Time Alt. Az.
03 Jul ? 23:11:37 10° SW 23:14:15 18° W 23:16:55 10° NW visible
04 Jul ? 22:55:05 10° SSW 22:58:14 24° W 23:01:23 10° NW visible
08 Jul ? 23:26:58 10° WSW 23:28:51 13° W 23:30:45 10° WNW visible
09 Jul ? 23:10:03 10° SW 23:12:44 18° W 23:15:26 10° NW visible
10 Jul ? 22:53:28 10° SSW 22:56:38 25° W 22:59:49 10° NW visible
